TimeCST,TemperatureF,Dew PointF,Humidity,Sea Level PressureIn,VisibilityMPH,Wind Direction,Wind SpeedMPH,Gust SpeedMPH,PrecipitationIn,Events,Conditions,WindDirDegrees,DateUTC
12:56 AM,27.1,21.0,78,30.15,10.0,South,11.5,-,N/A,,Overcast,180,2012-12-28 06:56:00
1:56 AM,27.1,22.1,81,30.15,10.0,South,9.2,-,N/A,,Overcast,170,2012-12-28 07:56:00
2:56 AM,27.1,23.0,84,30.13,10.0,SSE,10.4,-,N/A,,Overcast,160,2012-12-28 08:56:00
3:56 AM,27.1,23.0,84,30.11,10.0,SSE,6.9,-,N/A,,Overcast,160,2012-12-28 09:56:00
4:56 AM,27.1,23.0,84,30.10,10.0,SSE,8.1,-,N/A,,Overcast,160,2012-12-28 10:56:00
5:39 AM,26.6,23.0,86,30.06,10.0,SSE,3.5,-,N/A,,Overcast,160,2012-12-28 11:39:00
5:56 AM,27.1,24.1,88,30.11,10.0,SE,5.8,-,N/A,,Overcast,140,2012-12-28 11:56:00
6:56 AM,27.1,24.1,88,30.10,9.0,SE,8.1,-,N/A,,Overcast,140,2012-12-28 12:56:00
7:31 AM,28.4,24.8,86,30.04,9.0,SSE,9.2,-,N/A,,Mostly Cloudy,150,2012-12-28 13:31:00
7:56 AM,28.0,25.2,89,30.09,8.0,SSE,12.7,-,N/A,,Overcast,150,2012-12-28 13:56:00
8:56 AM,29.1,26.1,88,30.10,7.0,SSE,11.5,-,N/A,,Overcast,160,2012-12-28 14:56:00
9:56 AM,30.0,26.1,85,30.10,8.0,SSE,11.5,-,N/A,,Overcast,160,2012-12-28 15:56:00
10:56 AM,30.0,26.1,85,30.06,8.0,SSE,13.8,-,N/A,,Overcast,160,2012-12-28 16:56:00
11:56 AM,31.1,27.1,85,30.02,8.0,SE,11.5,-,N/A,,Overcast,140,2012-12-28 17:56:00
12:56 PM,31.1,27.1,85,29.99,8.0,SSE,11.5,-,N/A,,Overcast,160,2012-12-28 18:56:00
1:56 PM,31.1,28.0,88,29.98,7.0,South,8.1,-,N/A,,Overcast,170,2012-12-28 19:56:00
2:56 PM,31.1,28.0,88,29.98,5.0,South,9.2,-,N/A,,Overcast,180,2012-12-28 20:56:00
3:56 PM,31.1,28.0,88,29.97,5.0,South,5.8,-,N/A,,Overcast,190,2012-12-28 21:56:00
4:56 PM,31.1,28.0,88,29.98,6.0,South,5.8,-,N/A,,Overcast,190,2012-12-28 22:56:00
5:56 PM,31.1,28.0,88,29.97,5.0,Calm,Calm,-,N/A,,Overcast,0,2012-12-28 23:56:00
6:56 PM,31.1,28.0,88,29.97,5.0,Calm,Calm,-,N/A,,Overcast,0,2012-12-29 00:56:00
7:56 PM,30.0,29.1,96,29.96,-9999.0,Calm,Calm,-,N/A,,Overcast,0,2012-12-29 01:56:00
8:02 PM,30.2,28.4,93,29.90,2.5,North,3.5,-,N/A,,Overcast,10,2012-12-29 02:02:00
8:41 PM,30.2,28.4,93,29.89,1.2,North,4.6,-,N/A,,Overcast,350,2012-12-29 02:41:00
8:48 PM,30.2,28.4,93,29.89,1.0,North,5.8,-,N/A,,Overcast,350,2012-12-29 02:48:00
8:56 PM,30.0,29.1,96,29.94,1.0,North,6.9,-,N/A,,Overcast,350,2012-12-29 02:56:00
9:04 PM,30.2,28.4,93,29.89,1.0,North,6.9,-,N/A,,Overcast,350,2012-12-29 03:04:00
9:12 PM,30.2,28.4,93,29.89,0.8,North,5.8,-,N/A,,Overcast,360,2012-12-29 03:12:00
9:56 PM,30.0,30.0,100,29.94,0.8,North,6.9,-,N/A,,Overcast,360,2012-12-29 03:56:00
10:08 PM,30.2,30.2,100,29.89,1.0,North,5.8,-,N/A,,Overcast,360,2012-12-29 04:08:00
10:17 PM,30.2,30.2,100,29.88,0.8,North,6.9,-,N/A,,Overcast,350,2012-12-29 04:17:00
10:32 PM,30.2,30.2,100,29.88,1.0,NNW,5.8,-,N/A,,Overcast,340,2012-12-29 04:32:00
10:44 PM,30.2,30.2,100,29.88,0.8,North,6.9,-,N/A,,Overcast,360,2012-12-29 04:44:00
10:56 PM,30.0,30.0,100,29.94,1.5,NNW,6.9,-,N/A,,Overcast,340,2012-12-29 04:56:00
11:06 PM,30.2,30.2,100,29.88,1.2,NNW,6.9,-,N/A,,Overcast,340,2012-12-29 05:06:00
11:31 PM,30.2,30.2,100,29.88,0.8,NNW,8.1,-,N/A,,Overcast,330,2012-12-29 05:31:00
11:41 PM,30.2,28.4,93,29.87,0.5,NNW,8.1,-,N/A,Fog,Light Freezing Fog,340,2012-12-29 05:41:00
11:48 PM,30.2,28.4,93,29.87,0.8,North,6.9,-,N/A,,Overcast,350,2012-12-29 05:48:00
11:56 PM,30.0,29.1,96,29.92,0.8,NNW,6.9,-,N/A,,Overcast,340,2012-12-29 05:56:00